Regional Weather Roundup
Issued by NWS

Home | Current Version | Previous Version | Graphics & Text | Print | Product List | Glossary On
Versions: 1 2 3 4 5 6 7 8 9 10 11 12 13 14 15 16 17 18 19 20 21 22 23 24 25 26 27 28 29 30 31 32 33 34 35 36 37 38 39 40 41 42 43 44 45 46 47 48 49 50
000
ASUS45 KTFX 261204
RWRMT
MONTANA HOURLY WEATHER ROUNDUP
NATIONAL WEATHER SERVICE GREAT FALLS MT
504 AM MST FRI DEC 26 2014

NOTE: "FAIR" INDICATES FEW OR NO CLOUDS BELOW 12000 FEET WITH NO
SIGNIFICANT WEATHER AND/OR OBSTRUCTIONS TO VISIBILITY.

* THESE STATIONS ARE NOT UNDER NWS QUALITY CONTROL. THEY DO NOT
   REPORT WEATHER SUCH AS PRECIPITATION OR FOG.

MTZ001>007-043-261300-
WEST OF THE DIVIDE
CITY           SKY/WX    TMP DP  RH WIND       PRES   REMARKS
KALISPELL      LGT SNOW  25  25 100 CALM      30.06R VSB 2
MISSOULA       MOCLDY    23  21  92 W3        30.07R
BUTTE          CLOUDY    12   9  88 CALM      29.96S
MULLAN PASS    FOG       19  16  88 NW9       29.93F WCI   8
* ESSEX        N/A       22  20  92 N/A        N/A
* LINCOLN      N/A       22  17  81 S4         N/A
* LOOKOUT PASS N/A       22  19  88 N6         N/A   WCI  14
* POLSON       N/A       25  24  96 N/A        N/A
* RONAN APT    CLOUDY    28  27  96 N/A        N/A
* SEELEY LAKE  N/A       20  18  92 N/A        N/A
* THOMP F APT  CLEAR     16   3  56 NW9G18     N/A   WCI   5
* YAAK HILL    N/A       27  24  88 N1         N/A
$$

MTZ008-052>055-261300-
SOUTHWEST MONTANA
CITY           SKY/WX    TMP DP  RH WIND       PRES   REMARKS
BOZEMAN        CLOUDY    12   9  88 S3        30.01S
DILLON         CLOUDY    12   7  80 SE7       29.97S WCI   1
* W YELLOWSTON PTCLDY   -17 -24  70 N/A        N/A
* THREE FORKS  MOCLDY    12  12 100 N/A        N/A
* BOULDER HILL N/A       16   9  74 SW4        N/A
* MONIDA PASS  N/A       10   6  84 N9         N/A   WCI  -3
* RAYNOLDS PAS N/A        5   4  96 N1         N/A
* WHITEHALL    N/A       15  10  80 NW1G6      N/A
* WISE RIVER   N/A       10   5  80 N/A        N/A
$$

MTZ009>010-012-014-046-048-049-054-261300-
EAST SLOPES AND CENTRAL MONTANA
CITY           SKY/WX    TMP DP  RH WIND       PRES   REMARKS
CUT BANK       LGT SNOW  19  18  96 N24       30.01R VSB 2 1/2 WCI   2
GREAT FALLS    CLOUDY    21  16  81 W9        29.98R WCI  11
HELENA         CLOUDY    18  14  84 CALM      30.01R
MALMSTROM AFB  LGT SNOW  19  16  88 W12       30.00R WCI   6
* DEARBORN     N/A       16  14  92 S1         N/A
* EAST GLACIER N/A       20  16  84 NE16       N/A   WCI   6
* MONARCH      N/A       16  10  77 S6         N/A   WCI   7
* PENDROY      N/A       20  20 100 N20        N/A   WCI   4
* ROGERS PASS  N/A       18  15  88 SE5G10     N/A   WCI  11
* SWEET GRASS  N/A       18  18 100 N17G22     N/A   WCI   3
$$

MTZ011-013-016-021-035-040-045-047-050-051-261300-
NORTH CENTRAL MONTANA
CITY           SKY/WX    TMP DP  RH WIND       PRES   REMARKS
HAVRE          CLOUDY    23  18  81 W10       29.99R WCI  13
LEWISTOWN      MOCLDY    10   7  88 SE6       29.95S
* N BAR RANCH  CLEAR      9   5  84 W6        29.95S WCI  -1
* CHESTER      N/A       13  10  88 S4         N/A
* DENTON       N/A       13   7  77 SE6        N/A   WCI   4
* GEYSER       N/A       20  12  71 W7         N/A   WCI  11
* JUDITH GAP   N/A       10   9  96 N/A        N/A
* LOMA         N/A       17  14  88 W1         N/A
$$

MTZ017>020-022>027-061-062-261300-
NORTHEAST MONTANA
CITY           SKY/WX    TMP DP  RH WIND       PRES   REMARKS
GLASGOW        CLOUDY    18  12  77 E12       30.04S WCI   5
GLENDIVE       CLOUDY    18  12  77 CALM      30.08S
JORDAN         PTCLDY    21  18  88 CALM      30.03S
SIDNEY         CLOUDY    14  10  84 CALM      30.14R
WOLF POINT     CLOUDY    12   9  88 E6        30.10S WCI   2
* BEAVER HILL  N/A       17  12  81 N/A        N/A
* CIRCLE       N/A       22  19  88 N/A        N/A
* LINDSAY DVD  N/A       21  15  78 SW4        N/A
* NAVAJO       N/A        7   5  91 SW4        N/A
* SACO         N/A       19  16  88 E9         N/A   WCI   8
$$

MTZ028>042-056>058-261300-
SOUTHCENTRAL AND SOUTHEAST MONTANA
CITY           SKY/WX    TMP DP  RH WIND       PRES   REMARKS
BAKER          CLOUDY    19  14  81 NW7       30.06S WCI  10
BILLINGS       PTCLDY    10   7  88 SW15      30.01S WCI  -7
LIVINGSTON     CLOUDY     7   1  76 CALM      29.98S
MILES CITY     CLOUDY    21  19  92 SE7       30.06S WCI  12
* LAUREL APT   PTCLDY     5  -2  72 N/A        N/A
* ROUNDUP APT  PTCLDY     7   0  73 S11        N/A   WCI  -8
* ALZADA       N/A       19  13  77 W4         N/A
* HYSHAM       N/A       21  15  78 W2         N/A
* LAME DEER    N/A       16  14  92 W4         N/A
* REED POINT   N/A        2  -1  87 N/A        N/A
$$

REGIONAL REPORTS...DAKOTAS
CITY           SKY/WX    TMP DP  RH WIND       PRES   REMARKS
WILLISTON      LGT SNOW  14  10  84 W10       30.12S WCI   1
DICKINSON      CLOUDY    18  10  71 NW6       30.06S WCI  10
BEACH          CLOUDY    18  14  84 CALM      30.07S
CROSBY         CLOUDY     7   5  91 NW7       30.13R WCI  -5
WATFORD CITY   CLOUDY    14  10  84 NW5       30.09S WCI   6
BISMARCK       CLOUDY    16   9  74 NW13      30.13R WCI   2
GRAND FORKS    CLOUDY    25  18  75 N8        30.10R WCI  16
FARGO          CLOUDY    25  19  78 N16       30.07S WCI  12
BUFFALO SD     PTCLDY    19  14  81 N12       29.98R WCI   6
RAPID CITY     CLOUDY    19  16  88 N9        30.04R WCI   8
$$

REGIONAL REPORTS...WYOMING/IDAHO/WASHINGTON
CITY           SKY/WX    TMP DP  RH WIND       PRES   REMARKS
GILLETTE       CLOUDY    18  12  77 N8        29.98R WCI   8
SHERIDAN       CLOUDY    19  14  81 CALM      30.00S
CODY           CLOUDY    16  12  84 W3        29.94S
YELLOWSTONE LA MOCLDY     1  -2  87 CALM      29.84S
SALMON         CLOUDY    21  16  81 CALM      30.03F
MULLAN PASS    FOG       19  16  88 NW9       29.93S WCI   8
SAND POINT     CLEAR     25  25 100 CALM      30.14R
SPOKANE        FAIR      25  23  92 NW3       30.13R

$$



USA.gov is the U.S. government's official web portal to all federal, state and local government web resources and services.